This is the latest recevied weather packets stored in our database for station/object KJ4EBE. If no packets are shown the sender has not sent any weather packets the latest 10 day(s).
| Time | Temp. | Humidity | Pressure | Rain* | Wind** | Luminosity | Snow |
|---|---|---|---|---|---|---|---|
| 1777252578 | 26.67° C | 80% | 1005.7 hPa | 0 mm | - | 1 W/m² | - |
| 1777252275 | 26.67° C | 80% | 1005.8 hPa | 0 mm | - | 3 W/m² | - |
| 1777251973 | 26.67° C | 79% | 1005.8 hPa | 0 mm | - | 5 W/m² | - |
| 1777251670 | 26.67° C | 78% | 1005.8 hPa | 0 mm | - | 9 W/m² | - |
| 1777251366 | 26.67° C | 78% | 1005.9 hPa | 0 mm | - | 16 W/m² | - |
| 1777251062 | 26.67° C | 77% | 1005.6 hPa | 0 mm | - | 26 W/m² | - |
| 1777250758 | 27.22° C | 78% | 1005.7 hPa | 0 mm | - | 30 W/m² | - |
| 1777250455 | 27.22° C | 78% | 1005.7 hPa | 0 mm | - | 29 W/m² | - |
| 1777250150 | 27.22° C | 78% | 1005.6 hPa | 0 mm | - | 31 W/m² | - |
| 1777249848 | 27.22° C | 77% | 1005.7 hPa | 0 mm | - | 35 W/m² | - |
| 1777249543 | 27.22° C | 77% | 1005.7 hPa | 0 mm | - | 44 W/m² | - |
| 1777249240 | 27.22° C | 77% | 1005.7 hPa | 0 mm | - | 42 W/m² | - |
| 1777248937 | 27.22° C | 77% | 1005.7 hPa | 0 mm | - | 39 W/m² | - |
| 1777248633 | 27.78° C | 76% | 1005.7 hPa | 0 mm | - | 45 W/m² | - |
| 1777248330 | 27.78° C | 76% | 1005.6 hPa | 0 mm | - | 52 W/m² | - |
| 1777248026 | 27.78° C | 75% | 1005.8 hPa | 0 mm | - | 56 W/m² | - |
| 1777247725 | 27.78° C | 75% | 1005.8 hPa | 0 mm | - | 59 W/m² | - |
| 1777247418 | 27.78° C | 75% | 1005.7 hPa | 0 mm | - | 65 W/m² | - |
| 1777247115 | 27.78° C | 75% | 1005.8 hPa | 0 mm | - | 66 W/m² | - |
| 1777246812 | 27.78° C | 74% | 1005.9 hPa | 0 mm | - | 76 W/m² | - |
| 1777246507 | 28.33° C | 73% | 1006 hPa | 0 mm | - | 95 W/m² | - |
| 1777246205 | 28.33° C | 73% | 1006 hPa | 0 mm | - | 101 W/m² | - |
| 1777245903 | 28.33° C | 73% | 1006.1 hPa | 0 mm | - | 97 W/m² | - |
| 1777245600 | 28.33° C | 72% | 1006.3 hPa | 0 mm | - | 87 W/m² | - |
| 1777245296 | 28.33° C | 71% | 1006.3 hPa | 0 mm | - | 76 W/m² | - |
* Rain latest hour (hover to see other rain measurements)
** Current wind speed in m/s (hover to see current wind gust speed)